Location: Cactus School
(34.5700°N, 118.0931°W)
Time: 10:13:00
(UTC-07:00)

ISS - Visible Passes

Search period start: 19 October 2019 00:00
Search period end: 29 October 2019 00:00
Orbit: 411 x 421 km, 51.6° (Epoch: 19 October)

Date Brightness Start Highest point End Pass type
(mag) Time Alt. Az. Time Alt. Az. Time Alt. Az.
21 Oct -0.8 06:18:41 10° S 06:20:57 17° SE 06:23:13 10° E visible
23 Oct -3.1 06:16:56 10° SW 06:20:15 58° SE 06:23:34 10° NE visible
24 Oct -1.9 05:29:48 17° S 05:31:44 29° SE 05:34:41 10° ENE visible
25 Oct -0.6 04:44:13 14° ESE 04:44:13 14° ESE 04:45:20 10° E visible
25 Oct -3.2 06:17:10 14° WSW 06:19:43 40° NW 06:22:56 10° NNE visible
26 Oct -3.7 05:31:20 71° N 05:31:20 71° N 05:34:26 10° NE visible
27 Oct -0.6 04:45:16 13° ENE 04:45:16 13° ENE 04:45:44 10° ENE visible
27 Oct -1.9 06:18:12 14° NW 06:19:23 17° NNW 06:21:41 10° NNE visible
28 Oct -1.8 05:31:58 20° N 05:31:58 20° N 05:33:28 10° NNE visible
